Lake Allatoona Weather Center

Moon Phase Calendar



Lake Allatoona Water Level
Online Cameras

 


      

Current Conditions in Acworth
11/30/2020 2:14:50 AM

53°F
Feels Like 50
Mist
Humidity
93%
Pressure
29.62"
Wind
4.7 mph (N)
Dew Point
51°F
UV Index
0/10 (Low)
Visibility
3 mi

Hourly Forecast

Date & Time Mon, Nov 30
2:00 AM
Mon, Nov 30
3:00 AM
Mon, Nov 30
4:00 AM
Mon, Nov 30
5:00 AM
Mon, Nov 30
6:00 AM
Mon, Nov 30
7:00 AM
Mon, Nov 30
8:00 AM
Mon, Nov 30
9:00 AM
Mon, Nov 30
10:00 AM
Mon, Nov 30
11:00 AM
Mon, Nov 30
12:00 PM
Mon, Nov 30
1:00 PM
Mon, Nov 30
2:00 PM
Mon, Nov 30
3:00 PM
Mon, Nov 30
4:00 PM
Mon, Nov 30
5:00 PM
Mon, Nov 30
6:00 PM
Mon, Nov 30
7:00 PM
Mon, Nov 30
8:00 PM
Mon, Nov 30
9:00 PM
Mon, Nov 30
10:00 PM
Mon, Nov 30
11:00 PM
Tue, Dec 1
12:00 AM
Tue, Dec 1
1:00 AM
Tue, Dec 1
2:00 AM
Tue, Dec 1
3:00 AM
Tue, Dec 1
4:00 AM
Tue, Dec 1
5:00 AM
Tue, Dec 1
6:00 AM
Tue, Dec 1
7:00 AM
Tue, Dec 1
8:00 AM
Tue, Dec 1
9:00 AM
Tue, Dec 1
10:00 AM
Tue, Dec 1
11:00 AM
Tue, Dec 1
12:00 PM
Tue, Dec 1
1:00 PM
Tue, Dec 1
2:00 PM
Tue, Dec 1
3:00 PM
Tue, Dec 1
4:00 PM
Tue, Dec 1
5:00 PM
Tue, Dec 1
6:00 PM
Tue, Dec 1
7:00 PM
Tue, Dec 1
8:00 PM
Tue, Dec 1
9:00 PM
Tue, Dec 1
10:00 PM
Tue, Dec 1
11:00 PM
Wed, Dec 2
12:00 AM
Wed, Dec 2
1:00 AM
Condition
Rain

Clouds

Clouds

Clouds

Clouds

Clouds

Clouds

Clouds

Clouds

Clouds

Clouds

Clouds

Clouds

Clouds

Clouds

Clouds

Snow

Snow

Snow

Clouds

Clouds

Clouds

Clouds

Clouds

Clouds

Clouds

Clouds

Clouds

Clouds

Clouds

Clouds

Clear

Clear

Clear

Clear

Clear

Clear

Clear

Clear

Clear

Clear

Clear

Clear

Clear

Clear

Clear

Clear

Clear
Temperature 53°F54°F50°F47°F46°F46°F45°F45°F46°F45°F45°F45°F42°F40°F38°F38°F35°F34°F33°F33°F33°F33°F32°F32°F31°F30°F28°F28°F28°F28°F28°F31°F33°F36°F38°F40°F41°F42°F41°F39°F35°F34°F33°F32°F32°F31°F31°F31°F
Feels Like 50°F48°F40°F36°F36°F35°F34°F34°F35°F34°F35°F34°F30°F28°F27°F26°F23°F22°F21°F21°F21°F21°F21°F21°F20°F19°F17°F17°F17°F17°F18°F20°F23°F25°F28°F30°F31°F31°F31°F30°F27°F26°F25°F25°F24°F24°F25°F24°F
Cloudiness 90%95%95%95%95%96%92%95%83%87%90%91%100%100%100%99%99%99%100%100%100%100%100%100%98%98%78%63%54%48%11%5%4%3%2%2%0%0%0%0%0%0%0%0%0%0%0%0%
Visibility 3 mi6 mi6 mi6 mi6 mi6 mi6 mi6 mi6 mi6 mi6 mi6 mi6 mi6 mi6 mi6 mi1 mi0 mi1 mi3 mi6 mi6 mi6 mi6 mi6 mi6 mi6 mi6 mi6 mi6 mi6 mi6 mi6 mi6 mi6 mi6 mi6 mi6 mi6 mi6 mi6 mi6 mi6 mi6 mi6 mi6 mi6 mi6 mi
Precipitation 100%80%80%80%80%80%0%0%0%0%0%0%8%21%24%25%28%32%48%40%40%28%20%20%0%0%0%0%0%0%0%0%0%0%0%0%0%0%0%0%0%0%0%0%0%0%0%0%
Humidity 93%91%85%84%83%82%80%77%74%72%70%72%80%82%81%79%89%92%93%93%90%91%92%93%92%92%92%92%92%92%91%88%81%73%66%62%60%59%60%67%77%81%84%86%87%87%87%87%
Dew Point 51°F52°F46°F42°F41°F41°F39°F38°F38°F37°F36°F36°F36°F35°F33°F30°F32°F31°F30°F28°F27°F26°F26°F25°F24°F22°F21°F21°F21°F20°F20°F19°F18°F18°F18°F18°F19°F19°F19°F21°F20°F20°F20°F19°F19°F19°F19°F19°F
Pressure 29.62"29.62"29.65"29.68"29.71"29.77"29.8"29.8"29.83"29.83"29.83"29.83"29.83"29.83"29.85"29.88"29.91"29.94"29.97"30"30"30.03"30.03"30.03"30.06"30.06"30.06"30.09"30.12"30.15"30.15"30.18"30.18"30.18"30.18"30.15"30.12"30.12"30.12"30.15"30.18"30.21"30.21"30.21"30.24"30.24"30.24"30.24"
Wind Speed 5.3 mph11.3 mph16.4 mph16.2 mph15.2 mph14.7 mph14.7 mph14.8 mph14.9 mph14.4 mph13.5 mph13.9 mph14.6 mph14.8 mph13.8 mph13.5 mph13.9 mph14.6 mph15.3 mph15.1 mph14.8 mph14.1 mph13.5 mph13 mph13 mph12.1 mph11.6 mph11.3 mph10.7 mph10.5 mph10.5 mph11.7 mph11.9 mph11.8 mph11.6 mph11.4 mph11.5 mph11.1 mph10.4 mph7.9 mph7.1 mph6.8 mph6.4 mph5.9 mph6.4 mph5.9 mph4 mph4.5 mph
Wind
Direction
138°
SE
259°
W
280°
W
293°
WNW
291°
WNW
292°
WNW
294°
WNW
297°
WNW
293°
WNW
292°
WNW
289°
WNW
281°
W
282°
WNW
282°
WNW
282°
WNW
286°
WNW
284°
WNW
284°
WNW
287°
WNW
290°
WNW
291°
WNW
293°
WNW
294°
WNW
294°
WNW
297°
WNW
296°
WNW
299°
WNW
296°
WNW
292°
WNW
291°
WNW
291°
WNW
292°
WNW
293°
WNW
292°
WNW
292°
WNW
289°
WNW
286°
WNW
287°
WNW
287°
WNW
288°
WNW
287°
WNW
291°
WNW
288°
WNW
295°
WNW
282°
WNW
293°
WNW
323°
NW
291°
WNW

Daily Forecast

Date High Low Precip. Humidity
Today
Nov 30

Snow
56 °F
33 °F
100%
70%
Tuesday
Dec 1

Clear
42 °F
28 °F
20%
66%
Wednesday
Dec 2

Clouds
51 °F
30 °F
0%
44%
Thursday
Dec 3

Rain
46 °F
36 °F
100%
61%
Friday
Dec 4

Rain
48 °F
35 °F
73%
60%
Saturday
Dec 5

Clouds
51 °F
32 °F
0%
48%
Sunday
Dec 6

Clouds
50 °F
36 °F
0%
51%
Monday
Dec 7

Clear
45 °F
32 °F
0%
57%
Tuesday
Dec 8

Clouds
45 °F
31 °F
0%
54%
Wednesday
Dec 9

Clear
57 °F
32 °F
0%
46%
Thursday
Dec 10

Clouds
61 °F
40 °F
0%
46%
Friday
Dec 11

Rain
56 °F
47 °F
100%
75%
Saturday
Dec 12

Rain
63 °F
39 °F
100%
85%
Sunday
Dec 13

Clouds
43 °F
30 °F
0%
56%
Monday
Dec 14

Clear
46 °F
30 °F
0%
49%
Tuesday
Dec 15

Clear
49 °F
32 °F
0%
46%


Temperature 8-14 Day Outlook



Precipitation 8-14 Day Outlook




Quick Links
Lake Allatoona News
Lake Allatoona Photos
Lake Allatoona Videos




About Us
Contact Us
Site Map
Search Site
Advertise With Us
   
Allatoona.USLakes.info
THE LAKE ALLATOONA WEBSITE

Copyright 2020, Lakes Online
Privacy    |    Legal